Location: Unspecified
(0.0000°N, 0.0000°E)
Time: 21:18:00
(UTC+00:00)

FENGYUN 1C DEB - Visible Passes

Search period start: 12 January 2025 00:00
Search period end: 22 January 2025 00:00
Orbit: 564 x 1166 km, 98.3° (Epoch: 05 January)

Date Brightness Start Highest point End Pass type
(mag) Time Alt. Az. Time Alt. Az. Time Alt. Az.
12 Jan ? 19:12:47 15° E 19:12:58 15° E 19:16:21 10° SE visible
12 Jan ? 20:55:04 46° WSW 20:55:04 46° WSW 20:59:53 10° SSW visible
13 Jan ? 19:04:43 12° E 19:04:56 12° E 19:07:04 10° ESE visible
13 Jan ? 20:47:00 54° WSW 20:47:00 54° WSW 20:51:56 10° SSW visible
14 Jan ? 20:38:51 62° SW 20:38:51 62° SW 20:43:52 10° SSW visible
15 Jan ? 20:30:39 66° SSW 20:30:39 66° SSW 20:35:40 10° SSW visible
16 Jan ? 20:22:21 65° SSE 20:22:21 65° SSE 20:27:20 10° S visible
17 Jan ? 20:13:59 57° SE 20:13:59 57° SE 20:18:53 10° S visible
18 Jan ? 20:05:33 48° SE 20:05:33 48° SE 20:10:17 10° S visible
18 Jan ? 21:47:48 11° W 21:47:48 11° W 21:48:02 10° WSW visible
19 Jan ? 19:57:03 40° ESE 19:57:03 40° ESE 20:01:32 10° S visible
19 Jan ? 21:39:18 13° WSW 21:39:18 13° WSW 21:40:22 10° WSW visible
20 Jan ? 19:48:28 32° ESE 19:48:28 32° ESE 19:52:39 10° SSE visible
20 Jan ? 21:30:42 16° WSW 21:30:42 16° WSW 21:32:23 10° WSW visible
21 Jan ? 19:39:49 26° ESE 19:39:49 26° ESE 19:43:36 10° SSE visible
21 Jan ? 21:22:03 19° WSW 21:22:03 19° WSW 21:24:11 10° SW visible
